Weather History for KSQI - February, 2013

Change the Weather History Date:

Saturday, February 23, 2013

  Actual Average Record
Temperature  
Mean Temperature 20 °F -  
Max Temperature 28 °F 36 °F 50 °F (2002)
Min Temperature 12 °F 21 °F -5 °F (2015)
Degree Days  
Heating Degree Days 45    
Moisture  
Dew Point 16 °F    
Average Humidity 76    
Maximum Humidity 92    
Minimum Humidity 64    
Precipitation  
Precipitation 0.00 in - - ()
Sea Level Pressure  
Sea Level Pressure 29.94 in    
Wind  
Wind Speed 12 mph (West)    
Max Wind Speed 20 mph    
Max Gust Speed 22 mph    
Visibility 10 miles    
Events      
Averages and records for this station are not official NWS values.
T = Trace of Precipitation, MM = Missing Value Source: NWS Daily Summary

Daily Weather History Graph

Daily Weather History Graph

Search for Another Location

Airport or City:

Trip Planner

Search our weather history database for the weather conditions in past years. The results will help you decide how hot, cold, wet, or windy it might be!

Date:

Astronomy

Feb. 23, 2013 Rise Set
Actual Time 6:42 AM CST 5:42 PM CST
Civil Twilight 6:14 AM CST 6:10 PM CST
Nautical Twilight 5:42 AM CST 6:42 PM CST
Astronomical Twilight 5:09 AM CST 7:14 PM CST
Moon 3:51 PM CST (2/23) 5:05 AM CST (2/23)
Length of Visible Light 11h 56m
Length of Day
10h 59m
Waxing Gibbous, 95% of the Moon is Illuminated
Feb 23
Waxing Gibbous
Feb 25
Full
Mar 4
Last Quarter
Mar 11
New
Mar 19
First Quarter

Hourly Weather History & Observations

Time (CST) Temp. Windchill Dew Point Humidity Pressure Visibility Wind Dir Wind Speed Gust Speed Precip Events Conditions
12:15 AM 24.8 °F 12.9 °F 19.4 °F 80% 29.93 in 10.0 mi West 13.8 mph - N/A   Overcast
12:35 AM 24.8 °F 12.9 °F 17.6 °F 74% 29.93 in 10.0 mi West 13.8 mph - N/A   Overcast
12:55 AM 23.0 °F 12.4 °F 17.6 °F 80% 29.93 in 10.0 mi WSW 10.4 mph - N/A   Overcast
1:15 AM 23.0 °F 13.1 °F 17.6 °F 80% 29.93 in 10.0 mi WSW 9.2 mph - N/A   Overcast
1:35 AM 21.2 °F 12.6 °F 17.6 °F 86% 29.93 in 10.0 mi WSW 6.9 mph - N/A   Overcast
1:55 AM 21.2 °F 10.1 °F 17.6 °F 86% 29.92 in 10.0 mi West 10.4 mph - N/A   Overcast
2:15 AM 24.8 °F 11.9 °F 19.4 °F 80% 29.93 in 10.0 mi West 16.1 mph - N/A   Overcast
2:35 AM 24.8 °F 10.7 °F 17.6 °F 74% 29.93 in 10.0 mi West 19.6 mph - N/A   Overcast
2:55 AM 24.8 °F 11.5 °F 17.6 °F 74% 29.93 in 10.0 mi West 17.3 mph 21.9 mph N/A   Overcast
3:15 AM 24.8 °F 12.4 °F 17.6 °F 74% 29.93 in 10.0 mi West 15.0 mph - N/A   Overcast
3:35 AM 24.8 °F 12.9 °F 17.6 °F 74% 29.93 in 10.0 mi West 13.8 mph - N/A   Overcast
3:55 AM 24.8 °F 13.4 °F 17.6 °F 74% 29.92 in 10.0 mi West 12.7 mph - N/A   Overcast
4:15 AM 24.8 °F 12.9 °F 17.6 °F 74% 29.92 in 10.0 mi West 13.8 mph - N/A   Overcast
4:55 AM 24.8 °F 12.9 °F 17.6 °F 74% 29.93 in 10.0 mi West 13.8 mph - N/A   Overcast
5:15 AM 23.0 °F 11.1 °F 17.6 °F 80% 29.94 in 10.0 mi West 12.7 mph - N/A   Overcast
5:35 AM 23.0 °F 10.6 °F 17.6 °F 80% 29.94 in 10.0 mi West 13.8 mph - N/A   Overcast
5:55 AM 23.0 °F 10.6 °F 17.6 °F 80% 29.94 in 10.0 mi West 13.8 mph - N/A   Overcast
6:15 AM 23.0 °F 11.1 °F 17.6 °F 80% 29.95 in 10.0 mi West 12.7 mph - N/A   Overcast
6:35 AM 23.0 °F 9.6 °F 17.6 °F 80% 29.95 in 10.0 mi West 16.1 mph - N/A   Overcast
6:55 AM 21.2 °F 9.5 °F 14.0 °F 74% 29.95 in 10.0 mi West 11.5 mph - N/A   Overcast
7:35 AM 21.2 °F 9.5 °F 15.8 °F 80% 29.95 in 10.0 mi West 11.5 mph - N/A   Overcast
7:55 AM 21.2 °F 10.9 °F 15.8 °F 80% 29.94 in 10.0 mi West 9.2 mph - N/A   Overcast
8:15 AM 21.2 °F 8.3 °F 15.8 °F 80% 29.95 in 10.0 mi West 13.8 mph - N/A   Mostly Cloudy
8:35 AM 24.8 °F 14.0 °F 17.6 °F 74% 29.95 in 10.0 mi West 11.5 mph - N/A   Scattered Clouds
8:55 AM 24.8 °F 15.3 °F 17.6 °F 74% 29.95 in 10.0 mi West 9.2 mph - N/A   Overcast
9:15 AM 24.8 °F 15.3 °F 17.6 °F 74% 29.95 in 10.0 mi West 9.2 mph - N/A   Overcast
9:35 AM 24.8 °F 11.1 °F 17.6 °F 74% 29.95 in 10.0 mi West 18.4 mph - N/A   Overcast
9:55 AM 24.8 °F 11.5 °F 17.6 °F 74% 29.95 in 10.0 mi West 17.3 mph - N/A   Overcast
10:15 AM 24.8 °F 12.4 °F 17.6 °F 74% 29.95 in 9.0 mi WNW 15.0 mph - N/A   Overcast
10:35 AM 24.8 °F 13.4 °F 17.6 °F 74% 29.96 in 10.0 mi West 12.7 mph - N/A   Overcast
10:55 AM 24.8 °F 11.9 °F 17.6 °F 74% 29.96 in 10.0 mi West 16.1 mph - N/A   Overcast
11:15 AM 26.6 °F 14.7 °F 17.6 °F 69% 29.96 in 10.0 mi West 15.0 mph - N/A   Overcast
11:35 AM 26.6 °F 15.2 °F 17.6 °F 69% 29.96 in 10.0 mi West 13.8 mph - N/A   Overcast
12:15 PM 26.6 °F 15.2 °F 17.6 °F 69% 29.94 in 10.0 mi WNW 13.8 mph - N/A   Overcast
12:35 PM 26.6 °F 15.7 °F 17.6 °F 69% 29.94 in 10.0 mi West 12.7 mph - N/A   Overcast
12:55 PM 26.6 °F 15.2 °F 17.6 °F 69% 29.93 in 10.0 mi West 13.8 mph - N/A   Overcast
1:15 PM 26.6 °F 14.3 °F 17.6 °F 69% 29.93 in 10.0 mi West 16.1 mph - N/A   Overcast
1:35 PM 28.4 °F 17.0 °F 19.4 °F 69% 29.93 in 10.0 mi West 15.0 mph - N/A   Overcast
1:55 PM 28.4 °F 18.0 °F 19.4 °F 69% 29.93 in 10.0 mi West 12.7 mph - N/A   Overcast
2:15 PM 28.4 °F 17.0 °F 17.6 °F 64% 29.93 in 10.0 mi West 15.0 mph - N/A   Mostly Cloudy
2:35 PM 28.4 °F 17.5 °F 17.6 °F 64% 29.93 in 10.0 mi West 13.8 mph - N/A   Scattered Clouds
2:55 PM 28.4 °F 18.0 °F 19.4 °F 69% 29.93 in 10.0 mi West 12.7 mph - N/A   Mostly Cloudy
3:15 PM 28.4 °F 19.7 °F 19.4 °F 69% 29.93 in 10.0 mi West 9.2 mph - N/A   Mostly Cloudy
3:35 PM 28.4 °F 19.7 °F 19.4 °F 69% 29.93 in 10.0 mi WSW 9.2 mph - N/A   Scattered Clouds
3:55 PM 28.4 °F 19.1 °F 17.6 °F 64% 29.93 in 10.0 mi West 10.4 mph - N/A   Partly Cloudy
4:15 PM 28.4 °F 19.1 °F 17.6 °F 64% 29.93 in 10.0 mi West 10.4 mph - N/A   Clear
4:35 PM 28.4 °F 18.5 °F 17.6 °F 64% 29.93 in 10.0 mi West 11.5 mph - N/A   Clear
4:55 PM 26.6 °F 18.2 °F 17.6 °F 69% 29.93 in 10.0 mi WSW 8.1 mph - N/A   Clear
5:15 PM 26.6 °F 17.5 °F 17.6 °F 69% 29.94 in 10.0 mi West 9.2 mph - N/A   Clear
5:35 PM 24.8 °F 14.6 °F 17.6 °F 74% 29.94 in 10.0 mi West 10.4 mph - N/A   Clear
5:55 PM 23.0 °F 15.8 °F 15.8 °F 74% 29.94 in 10.0 mi WSW 5.8 mph - N/A   Clear
6:15 PM 21.2 °F 14.9 °F 15.8 °F 80% 29.95 in 10.0 mi WSW 4.6 mph - N/A   Clear
6:55 PM 21.2 °F 12.6 °F 15.8 °F 80% 29.96 in 10.0 mi WSW 6.9 mph - N/A   Clear
7:15 PM 19.4 °F 11.5 °F 14.0 °F 80% 29.96 in 10.0 mi WSW 5.8 mph - N/A   Clear
7:35 PM 17.6 °F 10.7 °F 12.2 °F 79% 29.96 in 10.0 mi WSW 4.6 mph - N/A   Clear
7:55 PM 15.8 °F - 10.4 °F 79% 29.96 in 10.0 mi Calm Calm - N/A   Clear
8:15 PM 15.8 °F - 10.4 °F 79% 29.96 in - Calm Calm - N/A   Clear
8:35 PM 17.6 °F - 14.0 °F 86% 29.97 in - Calm Calm - N/A   Unknown
8:55 PM 17.6 °F 12.3 °F 12.2 °F 79% 29.97 in - West 3.5 mph - N/A   Clear
9:35 PM 17.6 °F 12.3 °F 12.2 °F 79% 29.97 in 10.0 mi West 3.5 mph - N/A   Clear
9:55 PM 17.6 °F 12.3 °F 12.2 °F 79% 29.97 in 10.0 mi WSW 3.5 mph - N/A   Clear
10:15 PM 15.8 °F 10.2 °F 12.2 °F 86% 29.97 in 10.0 mi WSW 3.5 mph - N/A   Clear
10:35 PM 14.0 °F - 10.4 °F 86% 29.97 in 8.0 mi Calm Calm - N/A   Clear
10:55 PM 12.2 °F 6.1 °F 8.6 °F 85% 29.97 in - West 3.5 mph - N/A   Unknown
11:15 PM 12.2 °F - 10.4 °F 92% 29.98 in 6.0 mi Calm Calm - N/A   Clear
11:35 PM 12.2 °F - 10.4 °F 92% 29.98 in 5.0 mi Calm Calm - N/A   Clear
11:55 PM 15.8 °F - 12.2 °F 86% 29.98 in - Calm Calm - N/A   Unknown